User: anonymous   Login
Location: Buttermere
(51.3333°N, 1.5167°W)
Time: 01:42:00
(UTC+00:00)
Language:

OBJECT-B - Orbit

View from above orbital plane
View from above orbital plane
View from above satellite
View from above satellite

Ground track
Ground track

The orbit data is extracted from the following two-line orbital elements,

1 40382U 15004B   21115.86010206 0.00008300  00000-0  15400-3 0    07
2 40382  96.9648 158.6626 0006518 298.2480  61.7518 15.48940179    04
Epoch (UTC): 25 April 2021 20:38:32
Eccentricity: 0.0006518
inclination: 96.9648°
perigee height: 415 km
apogee height: 424 km
right ascension of ascending node: 158.6626°
argument of perigee: 298.2480°
revolutions per day: 15.48940179
mean anomaly at epoch: 61.7518°
orbit number at epoch: 0

The dashed part of the orbit path shows where the satellite is in the earth's shadow,  

DLR